Wind_Speed
53 49 46 39 41 40 35 40 36 30 26 23 29 24 18 21 21 18 12 18 13 17 19 20 19 19 24 23 24 23 28 21 24 26 30 29 21 21 24 12 26 24 37 39 39
55 52 44 46 42 41 44 40 38 30 31 26 24 25 22 21 16 26 20 18 17 20 20 21 24 29 31 22 25 23 29 26 28 31 31 30 22 24 25 20 23 26 23 20 25
57 56 51 44 46 44 44 42 33 33 32 27 28 28 23 23 21 23 19 21 18 21 25 25 26 28 31 34 33 26 30 30 33 35 33 34 25 25 26 22 28 32 44 49 29
57 55 51 46 42 47 41 41 42 36 33 26 27 28 26 28 29 23 21 23 20 23 32 25 22 28 32 29 37 29 30 29 33 37 34 33 32 28 31 27 32 34 42 53 52
60 57 53 50 44 44 43 43 42 39 37 31 29 28 28 29 34 25 15 24 22 22 20 24 22 31 31 32 28 32 35 33 32 33 37 34 36 36 29 30 32 35 37 48 58
64 61 57 52 51 45 47 43 43 39 34 33 27 26 29 23 17 25 21 28 22 22 25 31 33 28 32 23 34 38 44 38 35 34 35 37 40 40 39 38 26 25 23 21 37
66 64 62 57 54 51 51 48 41 41 37 30 32 30 30 30 24 26 29 29 29 33 34 33 30 28 28 32 35 42 40 31 35 36 38 40 43 44 45 33 15 20 24 47 32
68 68 64 62 60 55 53 50 47 43 39 37 33 31 33 33 34 35 36 37 35 32 31 31 28 31 34 33 39 42 36 36 40 37 40 42 42 46 36 28 22 11 25 45 63
71 71 65 62 60 59 55 52 47 45 39 37 37 34 32 33 37 34 33 29 29 32 32 29 27 33 31 35 40 44 40 33 35 37 44 42 47 40 30 28 24 20 12 31 33
77 72 64 64 59 59 59 55 50 47 45 40 39 36 34 32 34 29 29 29 30 29 32 26 30 33 34 38 47 48 42 32 33 38 43 45 45 42 32 27 22 2 6 17 25
77 70 68 67 60 59 61 58 54 49 45 44 43 42 37 36 34 35 36 36 34 34 30 28 29 40 42 44 46 47 33 33 35 38 41 46 38 29 15 16 4 1 13 13 22
74 75 67 63 63 61 65 61 57 49 46 43 41 39 40 39 39 36 34 33 34 35 29 28 33 38 40 47 46 31 29 32 37 36 38 41 36 15 14 2 3 15 23 29 35
75 72 64 63 65 66 64 61 60 52 47 43 45 41 39 41 40 36 34 34 38 39 32 32 37 38 42 46 35 29 32 31 34 34 35 36 30 12 16 3 3 9 16 28 31
77 72 65 66 66 65 58 61 58 55 50 47 46 43 41 41 40 38 38 36 37 26 31 41 33 41 48 36 28 29 33 31 32 35 37 36 25 15 19 7 9 5 16 26 26
71 73 72 70 68 63 61 59 58 56 55 51 48 46 43 43 38 36 38 41 39 32 32 38 41 36 32 28 28 30 34 32 32 35 37 37 28 24 18 20 21 23 25 35 33
72 74 63 72 68 62 61 60 57 54 53 52 48 44 37 36 34 41 42 33 33 34 33 39 35 38 25 28 27 29 34 31 32 35 38 39 31 30 23 19 35 35 43 41 41
67 73 67 63 66 67 64 62 61 58 54 53 52 46 40 37 34 41 43 43 42 41 41 36 36 38 34 27 29 32 31 33 33 37 37 40 36 37 26 23 25 28 28 35 34
70 66 68 70 72 57 63 64 62 59 62 53 52 53 45 43 38 43 43 43 42 42 38 31 35 39 33 27 29 32 31 33 35 39 40 37 39 38 32 24 26 25 28 30 31
74 71 69 64 71 71 52 60 64 61 54 55 50 51 51 46 45 42 46 51 51 40 38 35 36 36 33 33 31 34 35 33 34 42 44 37 35 37 35 33 31 27 30 34 34
80 80 73 66 65 65 54 50 59 50 46 42 48 51 49 49 54 48 41 33 30 32 33 36 37 38 37 35 32 33 35 38 40 45 48 44 38 35 36 35 30 32 30 33 35
79 80 75 60 64 61 56 59 57 56 56 63 59 52 52 55 54 56 52 38 36 39 41 40 39 45 39 35 33 31 33 42 45 45 46 49 42 38 34 37 37 34 29 26 30
76 79 78 75 70 66 61 65 62 65 64 56 51 48 47 47 49 49 54 53 35 39 42 45 50 44 38 37 32 33 36 41 45 46 47 50 53 46 40 38 40 40 36 33 30
76 76 78 78 73 72 70 63 60 62 60 53 52 52 47 45 41 43 42 42 41 42 45 45 42 42 38 33 32 37 38 42 41 48 48 47 51 53 47 43 43 43 43 43 40
77 75 79 81 81 80 79 64 65 65 61 66 60 61 61 63 61 54 45 44 46 48 49 46 46 45 43 37 31 39 42 43 46 44 48 50 53 59 53 45 42 41 42 49 53
77 81 76 77 79 79 75 74 77 72 76 74 70 65 65 64 62 60 55 55 56 55 53 51 47 47 47 42 40 37 39 45 49 47 48 52 53 55 61 54 49 43 43 45 46
77 75 74 77 78 75 77 76 76 73 73 74 74 71 71 67 65 58 61 58 58 52 52 53 53 46 44 49 44 42 48 50 49 50 47 47 53 54 59 62 60 54 52 50 51
67 70 75 78 80 76 75 81 86 84 73 74 72 68 67 68 68 70 67 61 60 59 55 48 48 47 47 50 49 49 57 52 51 52 53 53 58 61 62 59 56 53 54 56 55
Wind_Direction
220 224 230 224 227 231 233 242 244 238 243 251 246 245 245 249 259 257 289 295 305 320 333 328 333 328 326 315 327 313 345 344 350 351 342 345 328 299 274 280 242 259 255 261 261
223 224 229 225 227 228 236 242 246 241 244 247 246 245 238 240 236 248 276 284 294 304 313 319 323 324 329 311 313 321 345 345 344 344 337 333 330 295 286 260 259 269 271 245 287
219 222 227 220 223 229 236 240 237 243 242 241 243 246 240 237 240 252 262 265 279 299 300 310 320 325 322 320 311 309 339 343 339 333 332 336 331 304 287 273 258 254 271 262 280
223 223 221 214 229 232 230 238 239 237 238 236 245 246 247 246 246 246 267 270 272 293 297 310 313 323 318 313 315 304 332 334 336 328 333 335 331 306 295 292 277 268 266 274 277
224 219 218 213 220 226 229 236 242 239 243 238 246 251 250 253 255 240 277 273 276 311 295 306 320 320 313 317 302 324 331 329 328 322 331 332 333 323 312 302 288 281 272 274 282
219 219 221 216 219 223 228 233 241 240 243 240 240 242 247 240 268 247 259 269 292 297 293 304 315 305 308 302 324 335 328 322 319 319 325 328 324 319 310 308 294 282 278 304 299
223 222 223 223 222 226 226 231 236 244 243 240 244 241 245 235 243 240 257 274 287 284 285 293 305 308 312 296 324 330 325 319 325 320 326 322 321 321 322 312 292 242 215 202 227
219 227 223 226 231 228 226 233 232 237 241 244 233 247 241 240 241 245 254 266 275 276 283 294 296 291 291 304 323 329 323 326 325 327 314 319 328 325 324 321 315 277 221 216 221
221 226 226 224 227 227 225 229 233 237 240 234 242 246 246 248 242 248 254 260 269 277 286 292 290 296 290 313 315 321 319 324 314 314 312 332 329 325 324 329 331 322 245 221 236
213 223 224 225 225 228 226 227 228 233 236 238 244 254 258 256 250 250 259 272 277 282 287 281 286 287 299 314 315 314 313 321 330 327 329 332 331 333 340 334 321 284 353 248 268
213 218 221 222 227 230 226 229 232 237 236 239 238 241 250 257 262 264 265 269 272 282 279 277 282 275 295 309 307 309 318 336 333 335 333 331 339 337 344 328 239 237 333 351 343
213 217 220 227 232 233 227 232 236 238 245 245 246 248 249 258 266 268 266 266 273 269 270 273 278 285 293 301 302 305 318 329 332 338 334 332 339 338 359 327 335 358 360 343 346
214 216 224 231 233 227 226 233 238 238 241 247 249 252 253 256 260 268 264 272 267 277 269 269 272 278 283 297 300 306 311 327 331 335 335 335 333 331 348 208 199 354 337 313 324
212 217 223 228 226 228 232 233 236 238 241 246 246 247 251 254 258 265 271 265 266 272 275 272 277 279 287 289 299 308 314 322 333 332 333 339 326 306 294 286 280 309 272 279 306
212 213 221 225 227 228 234 236 236 237 237 241 247 251 257 257 256 262 273 271 263 260 267 266 274 290 278 296 306 306 304 315 333 331 330 335 334 320 299 274 264 279 286 292 296
221 214 214 221 227 233 233 234 234 237 240 238 241 248 246 242 246 255 258 255 253 257 261 268 278 275 287 300 304 301 301 314 326 327 328 332 341 321 309 309 277 274 280 283 296
218 223 217 216 224 228 229 236 240 243 245 244 237 240 243 233 241 248 248 249 250 252 260 264 268 279 290 293 295 295 303 309 321 324 322 330 333 327 324 302 277 277 278 284 298
226 225 226 229 226 227 231 234 237 241 241 245 248 247 247 238 246 246 244 249 250 251 259 267 276 280 282 286 293 292 298 307 314 315 318 322 326 331 329 319 294 293 292 294 303
224 226 227 228 231 232 228 227 234 238 241 247 251 250 250 240 240 253 260 261 259 259 264 263 275 271 279 280 285 287 294 304 307 309 312 315 324 327 333 328 317 299 298 304 307
222 226 225 229 230 230 228 223 229 233 235 224 239 244 239 243 246 259 262 255 256 257 264 269 273 271 280 276 281 284 299 298 300 305 313 314 319 326 330 328 317 311 308 304 304
221 225 225 226 229 227 229 225 229 219 225 237 245 250 253 250 251 260 259 257 263 268 271 273 267 278 274 276 278 285 296 296 295 302 307 310 313 318 321 320 326 327 320 311 304
222 224 223 223 228 229 229 228 227 229 233 240 243 242 244 252 257 256 259 262 259 265 265 264 273 277 272 274 280 289 291 295 293 298 301 306 310 312 315 320 322 324 326 324 316
224 223 224 225 228 229 229 228 230 230 233 233 234 238 237 238 243 249 246 247 252 253 261 262 271 276 270 270 290 280 280 287 292 292 298 304 307 311 310 315 318 322 321 319 321
223 223 225 226 225 227 229 226 221 228 227 231 233 231 233 250 248 247 249 246 246 247 268 273 271 271 263 273 276 276 282 285 287 293 289 298 303 306 305 306 310 314 319 319 320
223 224 225 228 229 229 231 227 225 227 235 234 232 234 239 243 248 251 250 255 255 264 268 269 266 262 264 271 272 276 281 279 282 287 291 291 301 302 305 305 305 307 305 302 306
224 224 226 227 230 229 228 225 230 236 237 241 241 243 242 248 248 252 257 257 259 261 264 266 265 259 265 270 274 282 280 277 281 281 286 289 292 293 296 302 305 304 303 304 302
225 225 224 226 228 226 229 230 229 230 233 239 241 242 244 248 254 254 256 256 251 257 265 263 257 263 266 266 274 283 278 279 278 282 280 281 284 287 290 292 295 297 299 301 304
Height
10893 10901 10906 10913 10918 10923 10927 10930 10934 10938 10941 10943 10946 10948 10951 10952 10953 10955 10955 10956 10956 10956 10954 10953 10953 10952 10951 10948 10947 10946 10946 10943 10941 10942 10939 10938 10937 10929 10921 10939 10932 10928 10929 10928 10924
10886 10894 10900 10906 10912 10917 10922 10926 10929 10933 10936 10940 10942 10944 10947 10948 10950 10952 10952 10952 10953 10953 10952 10950 10949 10948 10946 10945 10944 10944 10941 10937 10933 10935 10936 10934 10934 10926 10918 10930 10925 10916 10911 10905 10900
10878 10887 10894 10900 10907 10911 10917 10921 10924 10928 10932 10935 10937 10940 10942 10944 10946 10948 10949 10948 10949 10949 10948 10947 10946 10944 10943 10941 10939 10938 10936 10931 10928 10931 10930 10928 10928 10923 10916 10920 10918 10915 10906 10901 10904
10872 10880 10887 10892 10900 10905 10911 10914 10919 10923 10927 10930 10933 10935 10937 10939 10941 10944 10944 10944 10945 10944 10943 10944 10942 10940 10939 10937 10934 10933 10929 10927 10922 10922 10922 10920 10920 10918 10912 10911 10909 10909 10903 10891 10892
10864 10872 10879 10885 10892 10898 10905 10909 10912 10918 10922 10925 10927 10930 10932 10934 10936 10939 10940 10942 10941 10940 10940 10939 10939 10937 10934 10932 10931 10927 10924 10920 10918 10917 10913 10912 10910 10907 10906 10905 10902 10901 10898 10895 10885
10855 10863 10871 10878 10885 10891 10897 10903 10907 10912 10916 10920 10923 10925 10926 10930 10931 10933 10936 10935 10935 10936 10937 10935 10934 10933 10931 10929 10925 10919 10917 10912 10911 10912 10909 10903 10900 10896 10893 10894 10893 10892 10895 10901 10884
10845 10855 10864 10871 10878 10884 10890 10896 10901 10905 10911 10914 10917 10920 10921 10925 10926 10928 10929 10929 10930 10933 10933 10932 10931 10929 10926 10924 10920 10918 10912 10908 10904 10904 10901 10897 10893 10885 10878 10873 10882 10880 10880 10872 10855
10835 10845 10854 10863 10870 10876 10883 10889 10894 10899 10904 10909 10911 10914 10916 10918 10920 10922 10923 10925 10927 10928 10928 10927 10926 10923 10921 10918 10915 10914 10908 10901 10898 10894 10891 10891 10884 10875 10872 10864 10859 10864 10866 10857 10853
10826 10835 10845 10854 10862 10869 10876 10881 10888 10893 10897 10901 10905 10908 10911 10912 10913 10915 10917 10920 10921 10922 10921 10921 10920 10917 10915 10911 10908 10909 10906 10905 10898 10892 10884 10879 10872 10869 10866 10861 10857 10855 10854 10853 10853
10816 10826 10836 10845 10853 10861 10868 10874 10880 10886 10890 10894 10898 10902 10904 10907 10908 10909 10911 10914 10915 10915 10915 10914 10914 10911 10908 10906 10901 10900 10902 10900 10894 10885 10873 10871 10865 10853 10854 10853 10851 10854 10856 10851 10852
10806 10817 10826 10836 10844 10851 10860 10866 10872 10877 10882 10886 10891 10894 10896 10900 10902 10903 10905 10907 10908 10909 10909 10908 10908 10905 10903 10901 10898 10895 10893 10888 10884 10877 10870 10861 10860 10850 10849 10847 10847 10843 10842 10840 10842
10797 10807 10817 10826 10834 10843 10850 10856 10863 10870 10874 10878 10883 10886 10889 10892 10894 10897 10899 10900 10901 10901 10902 10902 10901 10901 10898 10895 10892 10888 10885 10883 10879 10873 10869 10856 10854 10849 10845 10841 10839 10833 10830 10832 10827
10787 10797 10807 10815 10823 10831 10840 10848 10853 10861 10866 10870 10875 10879 10882 10886 10887 10890 10891 10893 10893 10894 10895 10895 10895 10894 10891 10889 10886 10882 10879 10877 10875 10869 10867 10858 10848 10849 10843 10836 10832 10830 10825 10828 10825
10776 10788 10796 10805 10815 10823 10832 10839 10844 10852 10858 10862 10867 10870 10874 10877 10880 10882 10882 10885 10886 10888 10889 10889 10888 10886 10884 10882 10879 10875 10872 10871 10867 10864 10859 10859 10852 10850 10847 10836 10830 10827 10826 10825 10823
10766 10777 10785 10796 10804 10814 10821 10829 10837 10844 10849 10855 10858 10862 10866 10870 10873 10875 10875 10876 10879 10880 10882 10881 10883 10881 10878 10875 10873 10869 10866 10865 10860 10858 10855 10853 10847 10841 10841 10835 10829 10823 10820 10819 10820
10755 10765 10775 10786 10798 10805 10812 10819 10827 10834 10839 10845 10850 10855 10858 10859 10862 10866 10868 10870 10872 10874 10875 10875 10876 10874 10870 10867 10866 10864 10861 10858 10854 10852 10848 10846 10841 10835 10834 10835 10827 10823 10818 10818 10817
10743 10754 10766 10777 10786 10792 10801 10811 10817 10824 10831 10832 10841 10846 10851 10852 10854 10858 10860 10861 10863 10866 10868 10868 10868 10866 10863 10862 10859 10857 10856 10851 10847 10845 10845 10841 10837 10831 10829 10827 10826 10821 10818 10814 10813
10731 10743 10754 10764 10771 10784 10794 10802 10804 10812 10816 10824 10830 10836 10841 10845 10847 10850 10852 10853 10855 10858 10860 10861 10863 10859 10858 10855 10853 10851 10849 10847 10842 10840 10839 10838 10832 10827 10822 10822 10819 10816 10814 10813 10808
10721 10731 10740 10753 10762 10773 10785 10790 10792 10803 10811 10817 10821 10825 10830 10835 10838 10840 10842 10843 10846 10850 10851 10853 10856 10850 10848 10847 10847 10844 10841 10840 10836 10833 10831 10833 10831 10823 10817 10811 10810 10809 10810 10805 10802
10711 10718 10731 10743 10751 10764 10776 10777 10784 10797 10801 10806 10808 10813 10820 10825 10829 10830 10833 10835 10837 10840 10842 10842 10847 10845 10837 10839 10839 10837 10835 10834 10830 10827 10821 10820 10822 10821 10813 10810 10808 10804 10804 10802 10798
10699 10708 10724 10730 10740 10755 10763 10763 10775 10785 10789 10793 10798 10805 10810 10814 10817 10819 10824 10828 10831 10830 10832 10835 10836 10839 10828 10831 10830 10830 10829 10827 10824 10821 10816 10812 10816 10812 10809 10804 10800 10800 10801 10800 10795
10686 10696 10709 10718 10732 10741 10748 10749 10762 10771 10778 10782 10788 10793 10795 10801 10808 10810 10813 10820 10823 10820 10823 10828 10823 10827 10824 10820 10823 10823 10821 10820 10815 10815 10809 10801 10801 10802 10801 10798 10791 10787 10790 10789 10788
10671 10686 10694 10704 10718 10726 10727 10736 10750 10759 10766 10770 10777 10782 10787 10790 10796 10797 10804 10807 10814 10814 10812 10816 10815 10813 10815 10815 10816 10812 10813 10811 10810 10805 10802 10800 10786 10791 10791 10788 10784 10780 10776 10774 10775
10658 10672 10675 10688 10697 10706 10717 10732 10741 10750 10755 10757 10766 10771 10777 10776 10783 10787 10794 10798 10805 10806 10802 10806 10805 10801 10801 10807 10808 10805 10803 10801 10799 10800 10795 10792 10792 10778 10781 10784 10782 10778 10772 10759 10750
10643 10650 10671 10681 10688 10700 10710 10715 10726 10737 10737 10743 10750 10759 10763 10763 10770 10773 10786 10789 10794 10795 10792 10795 10794 10792 10790 10793 10795 10798 10798 10793 10788 10789 10788 10785 10780 10772 10767 10768 10770 10772 10769 10764 10757
10626 10646 10665 10666 10675 10687 10695 10705 10713 10718 10723 10727 10738 10743 10751 10753 10757 10766 10771 10780 10782 10776 10780 10782 10783 10783 10783 10777 10783 10786 10782 10780 10781 10779 10779 10777 10773 10767 10764 10761 10756 10754 10753 10751 10748
10623 10635 10643 10649 10658 10670 10677 10682 10694 10700 10708 10714 10728 10734 10737 10746 10750 10754 10756 10757 10769 10769 10769 10772 10769 10772 10772 10770 10772 10771 10762 10771 10771 10770 10768 10766 10760 10758 10756 10754 10752 10747 10743 10738 10733